TimeCST,TemperatureF,Dew PointF,Humidity,Sea Level PressureIn,VisibilityMPH,Wind Direction,Wind SpeedMPH,Gust SpeedMPH,PrecipitationIn,Events,Conditions,WindDirDegrees,DateUTC
12:53 AM,34.0,33.1,96,30.35,8.0,Calm,Calm,-,N/A,,Clear,0,2012-11-16 06:53:00
1:53 AM,37.9,34.0,86,30.35,10.0,North,3.5,-,N/A,,Clear,360,2012-11-16 07:53:00
2:53 AM,37.0,33.1,86,30.35,10.0,Calm,Calm,-,N/A,,Clear,0,2012-11-16 08:53:00
3:53 AM,37.0,33.1,86,30.35,10.0,Calm,Calm,-,N/A,,Clear,0,2012-11-16 09:53:00
4:53 AM,36.0,33.1,89,30.36,10.0,North,3.5,-,N/A,,Clear,350,2012-11-16 10:53:00
5:53 AM,37.0,33.1,86,30.37,10.0,North,3.5,-,N/A,,Clear,360,2012-11-16 11:53:00
6:53 AM,37.0,33.1,86,30.39,10.0,Variable,3.5,-,N/A,,Clear,0,2012-11-16 12:53:00
7:53 AM,42.1,35.1,76,30.40,10.0,NE,4.6,-,N/A,,Clear,50,2012-11-16 13:53:00
8:53 AM,46.9,36.0,66,30.41,10.0,NE,8.1,-,N/A,,Clear,40,2012-11-16 14:53:00
9:53 AM,51.1,36.0,56,30.42,10.0,NE,8.1,-,N/A,,Clear,50,2012-11-16 15:53:00
10:53 AM,55.0,34.0,45,30.40,10.0,ENE,10.4,-,N/A,,Clear,60,2012-11-16 16:53:00
11:53 AM,57.9,30.0,35,30.39,10.0,NE,8.1,-,N/A,,Clear,40,2012-11-16 17:53:00
12:53 PM,59.0,30.9,35,30.37,10.0,Variable,4.6,-,N/A,,Clear,0,2012-11-16 18:53:00
1:53 PM,60.1,33.1,36,30.35,10.0,ENE,4.6,-,N/A,,Clear,60,2012-11-16 19:53:00
2:53 PM,60.1,32.0,35,30.34,10.0,NE,9.2,-,N/A,,Clear,40,2012-11-16 20:53:00
3:53 PM,59.0,30.0,33,30.34,10.0,NNE,4.6,-,N/A,,Clear,20,2012-11-16 21:53:00
4:53 PM,55.0,32.0,42,30.35,10.0,Calm,Calm,-,N/A,,Clear,0,2012-11-16 22:53:00
5:53 PM,48.0,34.0,58,30.35,10.0,NNW,3.5,-,N/A,,Clear,330,2012-11-16 23:53:00
6:53 PM,48.0,33.1,56,30.37,10.0,North,3.5,-,N/A,,Clear,350,2012-11-17 00:53:00
7:53 PM,46.9,34.0,61,30.38,10.0,Variable,4.6,-,N/A,,Clear,0,2012-11-17 01:53:00
8:53 PM,45.0,34.0,65,30.38,10.0,NE,4.6,-,N/A,,Clear,40,2012-11-17 02:53:00
9:53 PM,46.0,34.0,63,30.39,10.0,NE,4.6,-,N/A,,Clear,40,2012-11-17 03:53:00
10:53 PM,42.1,34.0,73,30.39,10.0,NE,3.5,-,N/A,,Clear,40,2012-11-17 04:53:00
11:53 PM,39.9,34.0,79,30.39,10.0,NE,3.5,-,N/A,,Clear,50,2012-11-17 05:53:00